Location: Noverd
(38.0910°N, 121.6877°W)
Time: 15:02:55
(UTC+00:00)

Envisat - Pass Details

Date: 22 April 2026
Orbit: 761 x 762 km, 98.4° (Epoch: 15 May)

Event Time Altitude Azimuth Distance (km) Brightness Sun altitude
Rises 10:15:05 0° 19° (NNE) 3,230 7.2 -31.2°
Reaches altitude 10° 10:17:29 10° 26° (NNE) 2,299 6.3 -30.9°
Enters shadow 10:22:04 46° 89° (E) 1,020 3.8 -30.3°
